Lexington Weather

Lexington, Massachusetts, USA

78°F
7/25/2024 12:43pm 
  • Lexington Conditions: Mostly cloudy
  • Temperature: 77.7°F / 25.4°CWarmer 1.1°F than last hour.
  • Dew Point: 72.5°FIncreased 0.7°Fsince last hour.
  • Relative Humidity: 84%Decreased 1.0% since last hour.
  • Wind: Wind from SSW SSW 2 mph, 10-min avg: 1 mph, gust: 6 mph
  • Barometer: 29.93 in Steady
  • Visibility: 10 miles
  • Rain Today: 0.00 in
  •   

Regional Weather Roundup
for Boston, MA

        
000
ASUS41 KBOX 231510
RWRBOX

REGIONAL WEATHER ROUNDUP
NATIONAL WEATHER SERVICE BOSTON/NORTON MA
1100 AM EDT TUE JUL 23 2024

NOTE:  "FAIR" INDICATES FEW OR NO CLOUDS BELOW 12,000 FEET WITH NO 
SIGNIFICANT WEATHER AND/OR OBSTRUCTIONS TO VISIBILITY.

MAZALL-231600-
EASTERN MASSACHUSETTS
  
CITY           SKY/WX    TMP DP  RH WIND       PRES   REMARKS
BOSTON         CLOUDY    72  65  78 SE5       30.04S                  
BEVERLY        NOT AVBL                                               
LAWRENCE       CLOUDY    76  66  71 CALM      30.05F                  
BEDFORD        CLOUDY    76  63  64 E6        30.03S                  
NORWOOD        CLOUDY    75  67  76 E9        30.05R                  
MARSHFIELD     CLOUDY    70  66  88 CALM      30.05R                  
PLYMOUTH       CLOUDY    69  66  90 NE6       30.04S FOG              
TAUNTON        CLOUDY    71  67  87 CALM      30.04R                  
NEW BEDFORD    CLOUDY    71  70  96 VRB6      30.03R FOG              
$$

MAZALL-231600-
CAPE COD AND THE ISLANDS
  
CITY           SKY/WX    TMP DP  RH WIND       PRES   REMARKS
FALMOUTH       CLOUDY    70  66  88 NE12      30.04R FOG              
HYANNIS        CLOUDY    68  67  96 NE9       30.02R                  
CHATHAM        CLOUDY    68  67  96 NE10      30.03S FOG              
PROVINCETOWN   CLOUDY    67  67 100 NE8       30.06R FOG              
NANTUCKET      CLOUDY    71  69  93 N6        30.01R                  
MARTHAS VNYRD  CLOUDY    70  68  93 NE12      30.02S FOG              
$$
 
MAZALL-231600-
CENTRAL AND WESTERN MASSACHUSETTS
  
CITY           SKY/WX    TMP DP  RH WIND       PRES   REMARKS
WORCESTER      CLOUDY    71  65  81 VRB3      30.07S                  
FITCHBURG      CLOUDY    75  67  76 CALM      30.06R                  
ORANGE         LGT RAIN  70  66  87 N6        30.07S FOG              
SPRINGFIELD    PTSUNNY   71  67  87 NW5       30.03R                  
WESTFIELD      CLOUDY    72  68  87 NE6       30.05R                  
NORTH ADAMS    LGT RAIN  70  67  90 CALM      30.07S                  
PITTSFIELD     CLOUDY    67  64  90 CALM      30.08R                  
$$
 
RIZALL-231600-
RHODE ISLAND
  
CITY           SKY/WX    TMP DP  RH WIND       PRES   REMARKS
PROVIDENCE     CLOUDY    70  69  97 NE7       30.04R FOG              
NEWPORT        CLOUDY    70  67  90 NE6       30.04R                  
BLOCK ISLAND   CLOUDY    68  67  96 NE6         N/A                   
SMITHFIELD     CLOUDY    70  70 100 VRB3      30.06R FOG              
WESTERLY       CLOUDY    70  68  93 N5        30.04R FOG              
$$
 
CTZALL-231600-
CONNECTICUT
  
CITY           SKY/WX    TMP DP  RH WIND       PRES   REMARKS
BRADLEY INTL   CLOUDY    75  68  78 N8        30.05R                  
HARTFORD       CLOUDY    73  68  84 CALM      30.04R                  
PLAINVILLE     CLOUDY    71  69  92 NE3       30.05R                  
BRIDGEPORT     CLOUDY    72  69  90 E10       30.03R                  
DANBURY        CLOUDY    73  69  87 CALM      30.05R                  
GROTON         LGT RAIN  72  69  90 E6        30.03R FOG              
NEW HAVEN      CLOUDY    74  71  91 E8        30.03S FOG              
CHESTER        CLOUDY    72  72 100 CALM      30.05R FOG              
MERIDEN        LGT RAIN  72  66  81 CALM      30.04S                  
WILLIMANTIC    CLOUDY    71  68  90 N3        30.05R FOG              
OXFORD         PTSUNNY   70  68  93 E3        30.07R FOG              
$$

MEZ002-015-021-024-NHZ003-005-008-011-012-014-VTZ005-008-231600-
NORTHERN NEW ENGLAND
  
CITY           SKY/WX    TMP DP  RH WIND       PRES   REMARKS
PORTLAND ME    CLOUDY    69  67  93 E10       30.07S                  
BANGOR ME      CLOUDY    66  63  90 SE5       30.08S                  
CONCORD NH     CLOUDY    70  68  93 NE9       30.06R                  
MANCHESTER NH  PTSUNNY   78  64  61 NW9       30.03S                  
NASHUA NH      CLOUDY    77  70  79 VRB5      30.05S                  
PORTSMOUTH NH  CLOUDY    76  68  76 NE9       30.04S                  
JAFFREY NH     CLOUDY    73  66  78 CALM      30.08F                  
KEENE NH       CLOUDY    70  67  90 CALM      30.07S                  
BURLINGTON VT  CLOUDY    72  66  81 NW9       30.06R                  
MT. WASHINGTON LGT RAIN  50  46  87 NW12        N/A                   
$$

NYZ052-076-231600-
EASTERN NEW YORK
  
CITY           SKY/WX    TMP DP  RH WIND       PRES   REMARKS
ALBANY         LGT RAIN  73  66  78 SE3       30.06R                  
NEW YORK CITY  CLOUDY    73  70  90 NE6       30.01S FOG              
$$
 
ANZALL-231600-
MARINE OBSERVATIONS
  
STATION/POSITION TIME  TEMP    WIND        PRES    VSBY  WAVE
                       AIR SEA DIR/SP/G                  HT/PER
                 (UTC) (F)     (DEG/KT/KT) (MB)    (MI)  (FT/S)
BOSTON BUOY      1450   67 66     CALM     1017.8R         1/ 9
BUZZARDS BAY     1400   67      50/ 10/ 11 1016.7R
NANTUCKET SOUND  1450   69 75   50/ 14/ 17 1015.9R         2/ 4
MASS BAY-STELLWA 1304   66 63  190/  4/  6 1017.5R  1 7/8  1/ 3
ISLE OF SHOALS   1400   66     160/  9/ 10 1017.1R
S OF BLOCK IS    1456      75                N/A           3/ 6
$$

......................KEY.........................
  SKY/WX - SKY CONDITION/PRESENT WEATHER
  TMP    - TEMPERATURE IN FAHRENHEIT
  DWPT   - DEWPOINT IN FAHRENHEIT
  RH     - RELATIVE HUMIDITY IN PERCENT
  WIND   - DIRECTION AND SPEED IN MPH
  PRES   - MEAN SEA LEVEL PRESSURE IN INCHES OF HG
  WCI    - WIND CHILL INDEX
  VSB    - VISIBILITY IN MILES
  HX     - HEAT INDEX
  TC     - TEMPERATURE IN CELSIUS
  VRB    - VARIABLE WIND DIRECTION
  N/A    - NOT AVAILABLE
  
      

Other recent Regional Weather Roundups

Thu Jul 25, 12:10pm EDT

Thu Jul 25, 11:10am EDT

Thu Jul 25, 10:10am EDT

Thu Jul 25, 9:10am EDT

Thu Jul 25, 8:10am EDT

Thu Jul 25, 7:10am EDT

Thu Jul 25, 6:10am EDT

Thu Jul 25, 5:10am EDT

Thu Jul 25, 4:10am EDT

Thu Jul 25, 3:10am EDT

Thu Jul 25, 2:10am EDT

Thu Jul 25, 1:10am EDT

Thu Jul 25, 12:10am EDT

Wed Jul 24, 11:10pm EDT

Wed Jul 24, 10:10pm EDT

Wed Jul 24, 9:10pm EDT

Wed Jul 24, 8:10pm EDT

Wed Jul 24, 7:10pm EDT

Wed Jul 24, 6:10pm EDT

Wed Jul 24, 5:10pm EDT

Wed Jul 24, 4:10pm EDT

Wed Jul 24, 3:10pm EDT

Wed Jul 24, 2:10pm EDT

Wed Jul 24, 1:10pm EDT

Wed Jul 24, 12:10pm EDT

Wed Jul 24, 11:10am EDT

Wed Jul 24, 10:10am EDT

Wed Jul 24, 9:10am EDT

Wed Jul 24, 8:10am EDT

Wed Jul 24, 7:10am EDT

Wed Jul 24, 6:10am EDT

Wed Jul 24, 5:10am EDT

Wed Jul 24, 4:10am EDT

Wed Jul 24, 3:10am EDT

Wed Jul 24, 2:10am EDT

Wed Jul 24, 1:10am EDT

Wed Jul 24, 12:10am EDT

Tue Jul 23, 11:10pm EDT

Tue Jul 23, 10:10pm EDT

Tue Jul 23, 9:10pm EDT

Tue Jul 23, 8:10pm EDT

Tue Jul 23, 7:10pm EDT

Tue Jul 23, 6:10pm EDT

Tue Jul 23, 5:10pm EDT

Tue Jul 23, 4:10pm EDT

Tue Jul 23, 3:10pm EDT

Tue Jul 23, 2:10pm EDT

Tue Jul 23, 1:10pm EDT

Tue Jul 23, 12:10pm EDT

Tue Jul 23, 10:10am EDT

Tue Jul 23, 10:10am EDT

Tue Jul 23, 9:10am EDT

Tue Jul 23, 8:10am EDT

Tue Jul 23, 7:10am EDT

Tue Jul 23, 6:10am EDT

Tue Jul 23, 5:10am EDT

Tue Jul 23, 4:10am EDT

Tue Jul 23, 3:10am EDT

Tue Jul 23, 2:10am EDT

Tue Jul 23, 1:10am EDT

Tue Jul 23, 12:10am EDT

Mon Jul 22, 11:10pm EDT

Mon Jul 22, 10:10pm EDT

Mon Jul 22, 9:10pm EDT

Mon Jul 22, 8:10pm EDT

Mon Jul 22, 7:10pm EDT

Mon Jul 22, 6:10pm EDT

Mon Jul 22, 5:10pm EDT

Mon Jul 22, 4:10pm EDT

Mon Jul 22, 3:10pm EDT

Mon Jul 22, 2:10pm EDT

Mon Jul 22, 1:10pm EDT

Mon Jul 22, 12:10pm EDT

Mon Jul 22, 11:10am EDT

Mon Jul 22, 10:10am EDT

Mon Jul 22, 9:10am EDT

Mon Jul 22, 8:10am EDT

Mon Jul 22, 7:10am EDT

Mon Jul 22, 6:10am EDT

Mon Jul 22, 5:10am EDT

Mon Jul 22, 4:10am EDT

Mon Jul 22, 3:10am EDT

Mon Jul 22, 2:10am EDT

Mon Jul 22, 1:10am EDT

Mon Jul 22, 12:10am EDT

Sun Jul 21, 11:10pm EDT

Sun Jul 21, 10:10pm EDT

Sun Jul 21, 9:10pm EDT

Sun Jul 21, 8:10pm EDT

Sun Jul 21, 7:10pm EDT

Sun Jul 21, 6:10pm EDT

Sun Jul 21, 5:10pm EDT

Sun Jul 21, 4:10pm EDT

Sun Jul 21, 3:10pm EDT

Sun Jul 21, 2:10pm EDT

Sun Jul 21, 1:10pm EDT

Sun Jul 21, 12:10pm EDT

Sun Jul 21, 11:10am EDT

Sun Jul 21, 10:10am EDT

Sun Jul 21, 9:10am EDT

Sun Jul 21, 8:10am EDT

Sun Jul 21, 7:10am EDT

Sun Jul 21, 6:10am EDT

Sun Jul 21, 5:10am EDT

Sun Jul 21, 4:10am EDT

Sun Jul 21, 3:10am EDT

Sun Jul 21, 2:10am EDT

Sun Jul 21, 1:10am EDT

Sun Jul 21, 12:10am EDT

Sat Jul 20, 11:10pm EDT

Sat Jul 20, 10:10pm EDT

Sat Jul 20, 9:10pm EDT

Sat Jul 20, 8:10pm EDT

Sat Jul 20, 7:10pm EDT

Sat Jul 20, 6:10pm EDT

Sat Jul 20, 5:10pm EDT

Sat Jul 20, 4:10pm EDT

Sat Jul 20, 3:10pm EDT

Sat Jul 20, 2:10pm EDT

Sat Jul 20, 1:10pm EDT

Sat Jul 20, 12:10pm EDT

Sat Jul 20, 11:10am EDT

Sat Jul 20, 10:10am EDT

Sat Jul 20, 9:10am EDT

Sat Jul 20, 8:10am EDT

Sat Jul 20, 7:10am EDT

Sat Jul 20, 6:10am EDT

Sat Jul 20, 5:10am EDT

Sat Jul 20, 4:10am EDT

Sat Jul 20, 3:10am EDT

Sat Jul 20, 2:10am EDT

Sat Jul 20, 1:10am EDT

Sat Jul 20, 12:10am EDT

Fri Jul 19, 11:10pm EDT

Fri Jul 19, 10:10pm EDT

Fri Jul 19, 9:10pm EDT

Fri Jul 19, 8:10pm EDT

Fri Jul 19, 7:10pm EDT

Fri Jul 19, 6:10pm EDT

Fri Jul 19, 5:10pm EDT

Fri Jul 19, 4:10pm EDT

Fri Jul 19, 3:10pm EDT

Fri Jul 19, 2:10pm EDT

Fri Jul 19, 1:10pm EDT

Fri Jul 19, 12:10pm EDT

Fri Jul 19, 11:10am EDT

Fri Jul 19, 10:10am EDT

Fri Jul 19, 9:10am EDT

Fri Jul 19, 8:10am EDT

Fri Jul 19, 7:10am EDT

Fri Jul 19, 6:10am EDT

Fri Jul 19, 5:10am EDT

Fri Jul 19, 4:10am EDT

Fri Jul 19, 3:10am EDT

Fri Jul 19, 2:10am EDT

Fri Jul 19, 1:10am EDT

Fri Jul 19, 12:10am EDT

Thu Jul 18, 11:10pm EDT

Thu Jul 18, 10:10pm EDT

Thu Jul 18, 9:10pm EDT

Thu Jul 18, 8:10pm EDT

Thu Jul 18, 7:10pm EDT

Thu Jul 18, 6:10pm EDT

Thu Jul 18, 5:10pm EDT

Thu Jul 18, 4:10pm EDT

Thu Jul 18, 3:10pm EDT

Thu Jul 18, 2:10pm EDT

Thu Jul 18, 1:10pm EDT